[[{"header":{"parameterUnit":"m.s-1","parameterCategory":1,"la1":30.2991,"la2":30.254,"lo1":-89.0895,"lo2":-89.0444,"dy":0.0017,"dx":0.0017,"nx":28,"ny":28,"refTime":"2025-04-05T09:00:00:Z","depth":0,"parameterNumber":2,"parameterNumberName":"U-component_of_WINDS"},"data":[0,0,0,0,0,0,0,0,0,0,0,0,0,0,0,0,0,0,0,0,0,0,0,0,0,0,0,0,0,0,0,0,0,0,0,0,0,0,0,0,0,0,0,0,0,0,0,0,0,0,0,0,0,0,0,0,0,0,-0.9794,-0.9795,0,-0.9892,-0.9893,-0.9894,-0.9948,-0.9948,-0.9948,-0.9949,-1.0049,-1.0051,-1.0053,0,0,0,0,0,0,0,0,0,0,0,0,0,-0.9654,-0.9656,-0.9794,-0.9795,-0.9796,-0.9892,-0.9893,-0.9894,-0.9948,-0.9948,-0.9948,-0.9949,-1.0048,-1.0051,-1.0054,0,0,0,0,0,0,0,0,0,0,0,0,0,-0.9729,-0.9657,-0.9794,-0.9835,-0.9839,-0.9891,-0.9893,-0.9895,-0.9948,-0.9948,-0.9949,-0.9949,-1.0047,-1.005,-1.0054,-1.0073,0,0,-1.0066,-1.0067,0,0,0,0,0,0,0,0,-0.9725,-0.9734,-0.9828,-0.9832,-0.9837,-0.9908,-0.988,-0.9954,-0.9948,-0.9907,-0.9949,-0.9949,-1.0002,-1.0009,-1.0027,-1.0078,-1.0082,-1.0066,-1.0068,-1.007,-1.0071,0,0,0,0,0,0,0,-0.972,-0.9731,-0.9833,-0.9829,-0.9835,-0.9848,-0.9859,-0.9895,-0.9952,-0.991,-0.9915,-0.9925,-1.0004,-1.0023,-1.003,-1.0083,-1.0066,-1.0069,-1.0072,-1.0073,-1.0155,-1.0155,0,0,0,0,0,0,-0.9708,-0.9726,-0.983,-0.9836,-0.9781,-0.9851,-0.9863,-0.9885,-0.9951,-0.9962,-0.9925,-0.9928,-1.0017,-1.0025,-1.0033,-1.006,-1.007,-1.0073,-1.0076,-1.0155,-1.0155,-1.0154,0,0,0,0,0,0,-0.9705,-0.9717,-0.9826,-0.9782,-0.9797,-0.9853,-0.9877,-0.9887,-0.9906,-0.9963,-0.9973,-0.9934,-1.0017,-1.0028,-1.0063,-1.0064,-1.0075,-1.0079,-1.0155,-1.0155,-1.0155,-1.0113,0,0,0,0,0,0,-0.97,-0.9715,-0.9723,-0.9782,-0.9799,-0.9853,-0.9877,-0.9889,-0.9912,-0.9916,-0.9974,-0.9983,-1.0018,-1.0057,-1.0066,-1.007,-1.0081,-1.0155,-1.0155,-1.0155,-1.0115,-1.0112,-1.0109,0,0,0,0,0,-0.9695,-0.9707,-0.9723,-0.9735,-0.981,-0.9853,-0.9863,-0.9903,-0.9912,-0.992,-0.9957,-0.9981,-1.0062,-1.006,-1.0071,-1.0076,-1.0155,-1.0155,-1.0155,-1.0116,-1.0112,-1.0109,0,0,0,0,0,0,-0.9647,-0.9716,-0.9734,-0.9765,-0.9803,-0.9862,-0.9874,-0.9898,-0.9934,-0.9936,-0.9984,-0.9997,-1.0027,-1.0055,-1.0051,-1.0097,-1.0111,-1.0113,-1.0078,-1.0075,-1.0072,-1.0065,-1.0085,0,0,0,0,0,-0.964,-0.967,-0.9728,-0.975,-0.9768,-0.9817,-0.9838,-0.9865,-0.9907,-0.9923,-0.9962,-1.0001,-1.0035,-1.0057,-1.0091,-1.0119,-1.0132,-1.0127,-1.0125,-1.0122,-1.0123,-1.014,-1.0139,-1.0154,-1.0154,-1.0154,0,0,-0.9626,-0.9667,-0.9683,-0.9741,-0.9774,-0.9804,-0.9831,-0.9861,-0.9883,-0.9927,-0.9963,-0.9992,-1.0039,-1.007,-1.0086,-1.0095,-1.0122,-1.0122,-1.0119,-1.0122,-1.014,-1.0139,-1.0137,-1.0154,-1.0154,-1.0154,0,0,-0.9615,-0.9649,-0.9672,-0.9704,-0.9753,-0.9785,-0.9791,-0.9846,-0.9868,-0.9904,-0.9938,-0.9965,-1.0023,-1.0055,-1.0079,-1.008,-1.0105,-1.009,-1.0076,-1.0092,-1.0091,-1.009,-1.0091,-1.0091,-1.0091,-1.0091,-1.0091,0,-0.9592,-0.9638,-0.968,-0.9708,-0.9733,-0.9774,-0.9797,-0.9826,-0.9884,-0.99,-0.9909,-0.9983,-1.0017,-1.0056,-1.0057,-1.0075,-1.0082,-1.0084,-1.0087,-1.0087,-1.0087,-1.0088,-1.0089,-1.0089,-1.009,-1.009,-1.009,0,-0.9606,-0.9638,-0.965,-0.9705,-0.9731,-0.9756,-0.9802,-0.9824,-0.9849,-0.9881,-0.9917,-0.996,-1.0004,-1.0015,-1.004,-1.0058,-1.0062,-1.0078,-1.0093,-1.0083,-1.0085,-1.0086,-1.0086,-1.0087,-1.0088,-1.0088,0,0,-0.9569,-0.9646,-0.965,-0.9675,-0.9732,-0.9757,-0.9785,-0.9828,-0.9846,-0.9884,-0.9908,-0.9956,-0.9972,-0.9999,-1.0028,-1.0042,-1.004,-1.0057,-1.0058,-1.0052,-1.0064,-1.0051,-1.0051,-1.0057,-1.0057,-1.0057,-1.006,0,-0.9567,-0.9618,-0.9656,-0.9693,-0.9722,-0.9762,-0.9786,-0.9823,-0.9854,-0.9883,-0.9917,-0.9951,-0.9969,-0.9985,-1.0001,-1.0037,-1.0043,-1.0037,-1.008,-1.0081,-1.0067,-1.0052,-1.0039,-1.004,-1.0061,-1.0061,-1.0061,0,-0.9571,-0.9608,-0.9647,-0.9701,-0.9715,-0.9736,-0.9779,-0.9807,-0.985,-0.9871,-0.9901,-0.9931,-0.9962,-0.9973,-1.0016,-1.0012,-1.0031,-1.0052,-1.0053,-1.0058,-1.0071,-1.0058,-1.0041,-1.0041,-1.0063,-1.0063,-1.0063,0,-0.954,-0.9599,-0.9631,-0.9651,-0.9715,-0.9729,-0.9756,-0.9799,-0.9823,-0.986,-0.9876,-0.9916,-0.9939,-0.9969,-1.0009,-1.0014,-1.0048,-1.0063,-1.0067,-1.0066,-1.0073,-1.0072,-1.0059,-1.0084,-1.0084,-1.0084,-1.0084,0,-0.9534,-0.9556,-0.9618,-0.9637,-0.9663,-0.9708,-0.9733,-0.9763,-0.9802,-0.9828,-0.9864,-0.9888,-0.9939,-0.9969,-1.0,-1.0031,-1.0041,-1.0059,-1.0067,-1.0056,-1.0054,-1.007,-1.0071,-1.0084,-1.0084,-1.0084,-1.0084,0,-0.9504,-0.9545,-0.9582,-0.9639,-0.9654,-0.9671,-0.9721,-0.9741,-0.9773,-0.9806,-0.9816,-0.9867,-0.9904,-0.9946,-0.9997,-1.0019,-1.0047,-1.0059,-1.0033,-1.0037,-1.0039,-1.0038,-1.0036,-1.0038,-1.0061,-1.0061,-1.0061,0,-0.9497,-0.9515,-0.9575,-0.9595,-0.9621,-0.9652,-0.9677,-0.9721,-0.9745,-0.9796,-0.981,-0.9849,-0.9884,-0.9941,-0.9983,-1.0022,-1.0035,-1.0032,-1.0041,-1.003,-1.0036,-1.0034,-1.0036,-1.0029,-1.0029,-1.0028,-1.0028,0,-0.9481,-0.9501,-0.9535,-0.9575,-0.9603,-0.9638,-0.9673,-0.9688,-0.9739,-0.9764,-0.9802,-0.9829,-0.9881,-0.992,-0.9965,-0.9993,-1.0019,-1.0024,-1.0027,-1.0016,-1.0001,-1.001,-1.0026,-1.0024,-1.0025,-1.0025,-1.0025,-1.0025,-0.9463,-0.9482,-0.9526,-0.9562,-0.9594,-0.9626,-0.9648,-0.9683,-0.9716,-0.9762,-0.9786,-0.9824,-0.9867,-0.993,-0.9957,-0.9987,-0.9996,-1.0,-1.0002,-1.0002,-0.9999,-0.9995,-0.9995,-0.9996,-0.9996,-0.9996,-0.9996,0,-0.945,-0.948,-0.9513,-0.9562,-0.959,-0.9612,-0.9653,-0.9675,-0.9708,-0.9746,-0.9779,-0.9823,-0.9862,-0.9906,-0.9947,-0.9963,-0.9976,-0.9972,-0.9972,-0.9978,-0.9988,-0.9982,-0.9961,-0.9961,-0.9961,-0.9961,-0.9961,-0.9961,-0.9446,-0.9478,-0.9503,-0.9551,-0.9582,-0.9619,-0.964,-0.9671,-0.9701,-0.9749,-0.9781,-0.981,-0.985,-0.9895,-0.9931,-0.9943,-0.9957,-0.9949,-0.9965,-0.9974,-0.9977,-0.998,-0.9974,-0.9952,-0.9952,-0.9952,-0.9952,-0.9952]},{"header":{"parameterUnit":"m.s-1","parameterCategory":1,"la1":30.2991,"la2":30.254,"lo1":-89.0895,"lo2":-89.0444,"dy":0.0017,"dx":0.0017,"nx":28,"ny":28,"refTime":"2025-04-05T09:00:00:Z","depth":0,"parameterNumber":3,"parameterNumberName":"V-component_of_WINDS"},"data":[0,0,0,0,0,0,0,0,0,0,0,0,0,0,0,0,0,0,0,0,0,0,0,0,0,0,0,0,0,0,0,0,0,0,0,0,0,0,0,0,0,0,0,0,0,0,0,0,0,0,0,0,0,0,0,0,0,0,8.0417,8.0419,0,8.0637,8.064,8.0642,8.0656,8.0653,8.0651,8.0648,8.0872,8.088,8.0888,0,0,0,0,0,0,0,0,0,0,0,0,0,8.0007,8.0014,8.0416,8.0419,8.0422,8.0637,8.064,8.0643,8.0656,8.0653,8.065,8.0647,8.087,8.0879,8.0889,0,0,0,0,0,0,0,0,0,0,0,0,0,8.0202,8.0017,8.0416,8.0455,8.046,8.0636,8.064,8.0644,8.0657,8.0653,8.0649,8.0646,8.0866,8.0878,8.0891,8.1043,0,0,8.0929,8.0934,0,0,0,0,0,0,0,0,8.0191,8.0217,8.0446,8.0452,8.0459,8.0615,8.0578,8.0777,8.0658,8.0582,8.0648,8.0644,8.079,8.0808,8.0858,8.1053,8.1063,8.093,8.0937,8.0943,8.0946,0,0,0,0,0,0,0,8.0177,8.0207,8.0504,8.045,8.0457,8.0461,8.0485,8.0616,8.0704,8.0588,8.059,8.0616,8.0792,8.0846,8.0863,8.1066,8.0929,8.094,8.0948,8.0953,8.1401,8.1405,0,0,0,0,0,0,8.0156,8.0196,8.0497,8.051,8.0313,8.0471,8.0498,8.0569,8.0703,8.072,8.0619,8.0616,8.0826,8.0848,8.0871,8.106,8.0942,8.0954,8.0961,8.1396,8.1402,8.1406,0,0,0,0,0,0,8.0147,8.0183,8.0488,8.0354,8.0393,8.0483,8.0562,8.0575,8.0629,8.0726,8.0742,8.0657,8.0824,8.0853,8.1001,8.1068,8.096,8.0971,8.1391,8.1398,8.1404,8.1438,0,0,0,0,0,0,8.0136,8.018,8.0238,8.0355,8.04,8.0614,8.0566,8.0582,8.065,8.0648,8.0766,8.0782,8.0823,8.0982,8.1013,8.1083,8.0981,8.1385,8.1394,8.1402,8.1431,8.1445,8.1457,0,0,0,0,0,8.0121,8.0238,8.0241,8.0277,8.0475,8.0618,8.0644,8.069,8.0655,8.0715,8.0779,8.0778,8.1056,8.0997,8.1032,8.1107,8.1381,8.1392,8.1401,8.1426,8.1442,8.1457,0,0,0,0,0,0,8.0125,8.0254,8.0259,8.0417,8.0507,8.062,8.0696,8.0705,8.0806,8.08,8.0852,8.0879,8.1025,8.1081,8.1013,8.1263,8.1215,8.1232,8.1221,8.1238,8.125,8.1234,8.0991,0,0,0,0,0,8.0144,8.025,8.0356,8.0486,8.0531,8.0606,8.067,8.0698,8.0793,8.083,8.0904,8.0996,8.1104,8.1174,8.1278,8.144,8.1467,8.1508,8.1521,8.1531,8.1546,8.1638,8.1659,8.1439,8.1439,8.1439,0,0,8.0185,8.0268,8.0331,8.0489,8.0561,8.067,8.0638,8.0753,8.0835,8.0848,8.0992,8.105,8.1156,8.1311,8.1383,8.1362,8.1613,8.1544,8.1551,8.1561,8.165,8.1671,8.1689,8.1446,8.1445,8.1444,0,0,8.0315,8.0388,8.0506,8.058,8.0691,8.0741,8.0769,8.0883,8.0922,8.1068,8.1081,8.1179,8.1363,8.1439,8.1502,8.1664,8.1669,8.1697,8.1763,8.1853,8.187,8.1886,8.1946,8.1966,8.1711,8.1711,8.1711,0,8.0352,8.0516,8.0564,8.0681,8.0751,8.0769,8.0889,8.0959,8.1098,8.1146,8.112,8.1355,8.1427,8.1602,8.1642,8.1692,8.1727,8.1684,8.1864,8.188,8.1895,8.1953,8.1975,8.1714,8.1714,8.1713,8.1713,0,8.0557,8.0671,8.0752,8.0889,8.0967,8.1085,8.1151,8.1225,8.1247,8.13,8.145,8.1538,8.1662,8.1706,8.1727,8.1885,8.1869,8.1853,8.1806,8.1918,8.1974,8.1996,8.1718,8.1717,8.1716,8.1715,0,0,8.0694,8.0858,8.0887,8.0951,8.1076,8.1166,8.1285,8.1408,8.1471,8.1567,8.167,8.1827,8.1814,8.1885,8.1916,8.1994,8.2121,8.1969,8.1973,8.1996,8.2303,8.2315,8.234,8.2124,8.2129,8.2132,8.2295,0,8.084,8.1053,8.1101,8.1285,8.1392,8.1413,8.1517,8.1606,8.1659,8.1758,8.1817,8.1929,8.1902,8.1946,8.2024,8.2089,8.2183,8.2077,8.2221,8.2225,8.2195,8.2368,8.2381,8.253,8.2316,8.232,8.2323,0,8.1038,8.1141,8.1336,8.1451,8.1497,8.159,8.1708,8.1802,8.1904,8.1938,8.2019,8.2042,8.2168,8.2115,8.229,8.2217,8.2279,8.232,8.2327,8.2343,8.2281,8.239,8.2578,8.2601,8.2357,8.2354,8.2352,0,8.1121,8.1308,8.145,8.1503,8.164,8.1705,8.1765,8.1864,8.1935,8.2039,8.2086,8.2202,8.2266,8.2355,8.241,8.2366,8.2582,8.2532,8.2614,8.2613,8.2659,8.2655,8.2861,8.2696,8.2696,8.2696,8.2695,0,8.1279,8.1398,8.149,8.1577,8.1712,8.1766,8.1898,8.1958,8.2046,8.2146,8.217,8.2263,8.2329,8.2432,8.2475,8.2615,8.2643,8.2674,8.2684,8.2673,8.2669,8.2714,8.2706,8.2702,8.27,8.2699,8.2698,0,8.1395,8.1461,8.1617,8.1735,8.1767,8.1861,8.1962,8.2048,8.2103,8.2229,8.2262,8.2348,8.247,8.2534,8.2685,8.2715,8.2873,8.2876,8.2839,8.2844,8.2923,8.2915,8.3165,8.3202,8.3012,8.3013,8.3015,0,8.1492,8.1584,8.1713,8.1782,8.1844,8.1955,8.2029,8.2087,8.2164,8.2289,8.236,8.2484,8.2587,8.2782,8.2857,8.2975,8.2982,8.3062,8.3,8.2986,8.2986,8.298,8.2991,8.3073,8.3075,8.3076,8.3077,0,8.1658,8.1687,8.1793,8.1913,8.2001,8.2098,8.2192,8.2248,8.2321,8.2406,8.2533,8.2612,8.277,8.2893,8.3017,8.3079,8.3091,8.3096,8.3122,8.3111,8.3087,8.3103,8.2871,8.309,8.3089,8.3088,8.3087,8.3087,8.1769,8.1853,8.1958,8.2077,8.2155,8.2244,8.2332,8.2398,8.2505,8.2638,8.2666,8.28,8.2902,8.307,8.3136,8.3242,8.3226,8.3262,8.3272,8.328,8.3285,8.3069,8.3265,8.3264,8.3264,8.3264,8.3264,0,8.1938,8.2007,8.2116,8.2249,8.2343,8.2348,8.2454,8.2533,8.2651,8.2746,8.2847,8.2994,8.3114,8.3201,8.3324,8.3393,8.3402,8.3423,8.3419,8.3434,8.3291,8.3258,8.3414,8.3414,8.3414,8.3414,8.3414,8.3414,8.2037,8.2181,8.2223,8.2407,8.2475,8.2608,8.2668,8.2751,8.2828,8.2991,8.3092,8.3148,8.324,8.3371,8.3482,8.3505,8.3549,8.3571,8.3594,8.3459,8.3443,8.3428,8.3397,8.358,8.358,8.3728,8.3729,8.373]}]]